NKS242 KSAN-KSMF

Flight info

Callsign NKS242
Flight time 1h 15m
Altitude 36000
Route PADRZ2 EHF NURAY SUUTR4
Aircraft A321/M-SDE3FGHIRWY/LB1

Departure

Time 2026-05-05 00:55
Airport San Diego International Airport (KSAN)

Arrival

Time 2026-05-05 02:10
Airport Sacramento International Airport (KSMF)
Time Latitude Longitude Altitude Speed Heading
2026-05-05 00:37 32.73389 -117.20475 24 ft 0 kts 88°
2026-05-05 00:41 32.73388 -117.20499 26 ft 4 kts 88°
2026-05-05 00:42 32.73388 -117.20527 26 ft 4 kts 85°
2026-05-05 00:42 32.73380 -117.20553 25 ft 4 kts 36°
2026-05-05 00:42 32.73357 -117.20564 25 ft 2 kts
2026-05-05 00:42 32.73351 -117.20565 25 ft 0 kts
2026-05-05 00:45 32.73354 -117.20565 25 ft 1 kts
2026-05-05 00:45 32.73378 -117.20562 23 ft 7 kts
2026-05-05 00:45 32.73435 -117.20560 23 ft 12 kts
2026-05-05 00:46 32.73513 -117.20510 24 ft 14 kts 49°
2026-05-05 00:46 32.73579 -117.20417 23 ft 15 kts 54°
2026-05-05 00:46 32.73574 -117.20294 24 ft 16 kts 106°
2026-05-05 00:46 32.73542 -117.20163 23 ft 17 kts 106°
2026-05-05 00:47 32.73508 -117.20024 23 ft 18 kts 106°
2026-05-05 00:47 32.73471 -117.19870 24 ft 21 kts 106°
2026-05-05 00:47 32.73430 -117.19704 25 ft 22 kts 106°
2026-05-05 00:47 32.73388 -117.19526 25 ft 23 kts 106°
2026-05-05 00:48 32.73343 -117.19342 24 ft 24 kts 105°
2026-05-05 00:48 32.73297 -117.19151 24 ft 24 kts 106°
2026-05-05 00:48 32.73249 -117.18955 23 ft 25 kts 106°
2026-05-05 00:48 32.73200 -117.18753 33 ft 26 kts 106°
2026-05-05 00:49 32.73150 -117.18546 23 ft 27 kts 106°
2026-05-05 00:49 32.73099 -117.18336 24 ft 27 kts 106°
2026-05-05 00:49 32.73046 -117.18114 22 ft 26 kts 106°
2026-05-05 00:49 32.72996 -117.17915 23 ft 21 kts 109°
2026-05-05 00:50 32.72959 -117.17771 23 ft 10 kts 107°
2026-05-05 00:50 32.72951 -117.17698 22 ft 7 kts 80°
2026-05-05 00:50 32.72953 -117.17686 22 ft 0 kts 76°
2026-05-05 00:50 32.72954 -117.17682 22 ft 0 kts 76°
2026-05-05 00:54 32.72957 -117.17669 22 ft 7 kts 75°
2026-05-05 00:54 32.72979 -117.17597 22 ft 10 kts 63°
2026-05-05 00:54 32.73026 -117.17608 22 ft 10 kts 296°
2026-05-05 00:54 32.73077 -117.17818 24 ft 59 kts 285°
2026-05-05 00:55 32.73256 -117.18557 25 ft 125 kts 285°
2026-05-05 00:55 32.73547 -117.19752 126 ft 165 kts 284°
2026-05-05 00:55 32.73868 -117.21031 930 ft 158 kts 286°
2026-05-05 00:55 32.74214 -117.22242 1664 ft 151 kts 287°
2026-05-05 00:56 32.74745 -117.23300 2225 ft 156 kts 310°
2026-05-05 00:56 32.75625 -117.24270 2323 ft 189 kts 311°
2026-05-05 00:56 32.76548 -117.25560 2485 ft 219 kts 303°
2026-05-05 00:56 32.77447 -117.27131 2857 ft 242 kts 301°
2026-05-05 00:57 32.78378 -117.28861 3467 ft 252 kts 300°
2026-05-05 00:57 32.79330 -117.30636 4253 ft 256 kts 301°
2026-05-05 00:57 32.80317 -117.32408 5092 ft 258 kts 303°
2026-05-05 00:57 32.81373 -117.34119 5934 ft 260 kts 306°
2026-05-05 00:58 32.82488 -117.35842 6743 ft 263 kts 306°
2026-05-05 00:58 32.83621 -117.37571 7503 ft 266 kts 306°
2026-05-05 00:58 32.84764 -117.39318 8234 ft 270 kts 305°
2026-05-05 00:58 32.85927 -117.41109 8983 ft 274 kts 304°
2026-05-05 00:59 32.87098 -117.42917 9721 ft 278 kts 303°
2026-05-05 00:59 32.88288 -117.44760 10266 ft 289 kts 303°
2026-05-05 00:59 32.89553 -117.46737 10436 ft 312 kts 303°
2026-05-05 00:59 32.90918 -117.48874 10575 ft 335 kts 303°
2026-05-05 01:00 32.92369 -117.51142 10864 ft 350 kts 304°
2026-05-05 01:00 32.93863 -117.53463 11437 ft 356 kts 303°
2026-05-05 01:00 32.95377 -117.55808 12087 ft 360 kts 303°
2026-05-05 01:00 32.96941 -117.58238 12264 ft 379 kts 303°
2026-05-05 01:01 32.98575 -117.60784 12497 ft 393 kts 303°
2026-05-05 01:01 33.00248 -117.63393 13058 ft 399 kts 303°
2026-05-05 01:01 33.01941 -117.66037 13686 ft 403 kts 303°
2026-05-05 01:01 33.03623 -117.68664 14249 ft 407 kts 303°
2026-05-05 01:02 33.05346 -117.71353 14815 ft 410 kts 303°
2026-05-05 01:02 33.07290 -117.73887 15334 ft 419 kts 314°
2026-05-05 01:02 33.09528 -117.76162 15853 ft 423 kts 315°
2026-05-05 01:02 33.11782 -117.78440 16360 ft 426 kts 315°
2026-05-05 01:03 33.14052 -117.80739 16863 ft 430 kts 315°
2026-05-05 01:03 33.16335 -117.83058 17352 ft 433 kts 315°
2026-05-05 01:03 33.18635 -117.85402 17836 ft 436 kts 315°
2026-05-05 01:03 33.20954 -117.87757 18306 ft 440 kts 315°
2026-05-05 01:04 33.23315 -117.90099 18700 ft 443 kts 315°
2026-05-05 01:04 33.28130 -117.94770 19598 ft 448 kts 315°
2026-05-05 01:04 33.30561 -117.97114 20036 ft 450 kts 315°
2026-05-05 01:05 33.32996 -117.99469 20493 ft 451 kts 314°
2026-05-05 01:05 33.35431 -118.01843 20926 ft 453 kts 314°
2026-05-05 01:05 33.37870 -118.04234 21343 ft 454 kts 314°
2026-05-05 01:05 33.40321 -118.06645 21762 ft 457 kts 314°
2026-05-05 01:06 33.42781 -118.09061 22147 ft 459 kts 314°
2026-05-05 01:06 33.45260 -118.11489 22535 ft 461 kts 313°
2026-05-05 01:06 33.47748 -118.13928 22937 ft 463 kts 313°
2026-05-05 01:06 33.50221 -118.16360 23084 ft 471 kts 313°
2026-05-05 01:07 33.52762 -118.18864 23331 ft 474 kts 313°
2026-05-05 01:07 33.55310 -118.21373 23708 ft 474 kts 313°
2026-05-05 01:07 33.57999 -118.23697 24096 ft 482 kts 321°
2026-05-05 01:07 33.61034 -118.25533 24444 ft 490 kts 328°
2026-05-05 01:08 33.64138 -118.27230 24778 ft 491 kts 327°
2026-05-05 01:08 33.67250 -118.28930 25104 ft 492 kts 327°
2026-05-05 01:08 33.70364 -118.30638 25433 ft 492 kts 327°
2026-05-05 01:08 33.73477 -118.32351 25780 ft 492 kts 327°
2026-05-05 01:09 33.76594 -118.34070 25999 ft 495 kts 327°
2026-05-05 01:09 33.79760 -118.35759 26135 ft 501 kts 328°
2026-05-05 01:09 33.82979 -118.37403 26282 ft 506 kts 329°
2026-05-05 01:09 33.86249 -118.39025 26415 ft 509 kts 329°
2026-05-05 01:10 33.89533 -118.40637 26613 ft 511 kts 329°
2026-05-05 01:10 33.92829 -118.42259 26837 ft 511 kts 329°
2026-05-05 01:10 33.96107 -118.43887 27064 ft 511 kts 328°
2026-05-05 01:10 33.99425 -118.45401 27297 ft 518 kts 334°
2026-05-05 01:11 34.02992 -118.46404 27552 ft 529 kts 343°
2026-05-05 01:11 34.06661 -118.46981 27793 ft 531 kts 345°
2026-05-05 01:11 34.10327 -118.47538 28036 ft 531 kts 345°
2026-05-05 01:11 34.13989 -118.48094 28238 ft 532 kts 345°
2026-05-05 01:12 34.19009 -118.48861 28536 ft 532 kts 344°
2026-05-05 01:12 34.22691 -118.49427 28828 ft 532 kts 345°
2026-05-05 01:12 34.27512 -118.50165 29284 ft 529 kts 344°
2026-05-05 01:12 34.32751 -118.50973 29691 ft 529 kts 344°
2026-05-05 01:13 34.36405 -118.51539 29926 ft 529 kts 344°
2026-05-05 01:13 34.40055 -118.52105 30146 ft 529 kts 344°
2026-05-05 01:13 34.43775 -118.52683 30376 ft 529 kts 344°
2026-05-05 01:13 34.50778 -118.53761 30918 ft 525 kts 344°
2026-05-05 01:14 34.54404 -118.54319 31128 ft 525 kts 344°
2026-05-05 01:14 34.57976 -118.54873 31340 ft 525 kts 344°
2026-05-05 01:14 34.61599 -118.55441 31569 ft 525 kts 344°
2026-05-05 01:14 34.65226 -118.56009 31799 ft 525 kts 344°
2026-05-05 01:15 34.69230 -118.56632 32054 ft 525 kts 344°
2026-05-05 01:15 34.75007 -118.57529 32358 ft 525 kts 345°
2026-05-05 01:15 34.80146 -118.58331 32616 ft 525 kts 344°
2026-05-05 01:15 34.87390 -118.59470 33025 ft 525 kts 344°
2026-05-05 01:16 34.91091 -118.60052 33234 ft 525 kts 344°
2026-05-05 01:16 34.94714 -118.60631 33442 ft 523 kts 342°
2026-05-05 01:16 34.98228 -118.61614 33650 ft 512 kts 333°
2026-05-05 01:16 35.01503 -118.63160 33828 ft 500 kts 324°
2026-05-05 01:17 35.04502 -118.65200 33977 ft 488 kts 316°
2026-05-05 01:17 35.07195 -118.67662 34183 ft 479 kts 310°
2026-05-05 01:17 35.09752 -118.70272 34295 ft 481 kts 310°
2026-05-05 01:17 35.14646 -118.75233 34579 ft 482 kts 311°
2026-05-05 01:18 35.19765 -118.80399 35317 ft 471 kts 311°
2026-05-05 01:18 35.23582 -118.84268 35737 ft 469 kts 311°
2026-05-05 01:18 35.26091 -118.86826 35934 ft 470 kts 311°
2026-05-05 01:18 35.28601 -118.89395 35983 ft 470 kts 311°
2026-05-05 01:19 35.33611 -118.94527 35986 ft 470 kts 311°
2026-05-05 01:19 35.38593 -118.99629 35992 ft 470 kts 311°
2026-05-05 01:20 35.43615 -119.04770 35984 ft 470 kts 311°
2026-05-05 01:20 35.48820 -119.09688 35982 ft 480 kts 321°
2026-05-05 01:21 35.54958 -119.13223 36002 ft 490 kts 329°
2026-05-05 01:21 35.61207 -119.16557 36024 ft 490 kts 329°
2026-05-05 01:22 35.67475 -119.19932 35984 ft 493 kts 329°
2026-05-05 01:22 35.73774 -119.23333 35984 ft 496 kts 329°
2026-05-05 01:23 35.80115 -119.26753 36021 ft 498 kts 329°
2026-05-05 01:23 35.89268 -119.31704 36031 ft 499 kts 329°
2026-05-05 01:24 35.97624 -119.36227 36038 ft 500 kts 330°
2026-05-05 01:24 36.03991 -119.39680 36043 ft 500 kts 330°
2026-05-05 01:25 36.09266 -119.42554 36022 ft 498 kts 330°
2026-05-05 01:25 36.15597 -119.46014 36024 ft 497 kts 330°
2026-05-05 01:26 36.21928 -119.49465 36022 ft 497 kts 330°
2026-05-05 01:26 36.28252 -119.52917 36026 ft 496 kts 330°
2026-05-05 01:27 36.34576 -119.56383 36055 ft 496 kts 331°
2026-05-05 01:27 36.43085 -119.61060 36055 ft 495 kts 332°
2026-05-05 01:28 36.55591 -119.67942 36055 ft 494 kts 332°
2026-05-05 01:28 36.64969 -119.74404 36064 ft 488 kts 323°
2026-05-05 01:29 36.70708 -119.78933 36062 ft 488 kts 324°
2026-05-05 01:29 36.76446 -119.83451 36077 ft 488 kts 324°
2026-05-05 01:30 36.82175 -119.87986 36066 ft 487 kts 324°
2026-05-05 01:30 36.87896 -119.92520 36060 ft 487 kts 324°
2026-05-05 01:31 36.93610 -119.97061 36058 ft 487 kts 325°
2026-05-05 01:31 36.99325 -120.01618 36065 ft 487 kts 325°
2026-05-05 01:32 37.05034 -120.06173 36061 ft 487 kts 325°
2026-05-05 01:32 37.07876 -120.08445 35960 ft 481 kts 325°
2026-05-05 01:32 37.10641 -120.10651 35536 ft 475 kts 326°
2026-05-05 01:33 37.13415 -120.12865 35282 ft 471 kts 326°
2026-05-05 01:33 37.16174 -120.15072 34983 ft 472 kts 326°
2026-05-05 01:33 37.18959 -120.17305 34159 ft 477 kts 327°
2026-05-05 01:33 37.21762 -120.19555 33191 ft 481 kts 327°
2026-05-05 01:34 37.24579 -120.21819 32446 ft 479 kts 328°
2026-05-05 01:34 37.27372 -120.24063 31798 ft 476 kts 329°
2026-05-05 01:34 37.30169 -120.26296 31043 ft 476 kts 330°
2026-05-05 01:34 37.32981 -120.28503 30263 ft 477 kts 332°
2026-05-05 01:35 37.35808 -120.30694 29329 ft 478 kts 333°
2026-05-05 01:35 37.38652 -120.32885 28334 ft 480 kts 333°
2026-05-05 01:35 37.41510 -120.35092 27319 ft 483 kts 332°
2026-05-05 01:35 37.44378 -120.37316 26280 ft 485 kts 332°
2026-05-05 01:36 37.47223 -120.39613 25265 ft 489 kts 327°
2026-05-05 01:36 37.49906 -120.42280 24235 ft 492 kts 325°
2026-05-05 01:36 37.52587 -120.44979 23127 ft 494 kts 325°
2026-05-05 01:36 37.55270 -120.47677 22303 ft 491 kts 324°
2026-05-05 01:37 37.57929 -120.50351 21474 ft 487 kts 324°
2026-05-05 01:37 37.60555 -120.52999 20676 ft 480 kts 324°
2026-05-05 01:37 37.63085 -120.55548 20409 ft 465 kts 324°
2026-05-05 01:37 37.65577 -120.58053 20226 ft 446 kts 324°
2026-05-05 01:38 37.67955 -120.60439 20100 ft 428 kts 324°
2026-05-05 01:38 37.70240 -120.62729 19980 ft 412 kts 324°
2026-05-05 01:38 37.72442 -120.64942 19860 ft 398 kts 324°
2026-05-05 01:38 37.74584 -120.67094 19601 ft 389 kts 325°
2026-05-05 01:39 37.76687 -120.69203 19223 ft 384 kts 325°
2026-05-05 01:39 37.78767 -120.71291 18789 ft 380 kts 324°
2026-05-05 01:39 37.80837 -120.73373 18283 ft 376 kts 324°
2026-05-05 01:39 37.82855 -120.75411 17341 ft 369 kts 324°
2026-05-05 01:40 37.84842 -120.77417 17098 ft 364 kts 324°
2026-05-05 01:40 37.86827 -120.79419 16720 ft 365 kts 324°
2026-05-05 01:40 37.88818 -120.81435 16168 ft 364 kts 323°
2026-05-05 01:40 37.90785 -120.83432 15607 ft 363 kts 323°
2026-05-05 01:41 37.92739 -120.85418 15270 ft 356 kts 323°
2026-05-05 01:41 37.94655 -120.87367 14814 ft 352 kts 323°
2026-05-05 01:41 37.96556 -120.89306 14342 ft 349 kts 322°
2026-05-05 01:41 37.98436 -120.91226 13884 ft 346 kts 322°
2026-05-05 01:42 38.00308 -120.93134 13368 ft 343 kts 322°
2026-05-05 01:42 38.02161 -120.95025 12894 ft 340 kts 322°
2026-05-05 01:42 38.03972 -120.96879 12769 ft 334 kts 322°
2026-05-05 01:42 38.05790 -120.98740 12640 ft 336 kts 322°
2026-05-05 01:43 38.07565 -121.00667 12491 ft 336 kts 316°
2026-05-05 01:43 38.09140 -121.02886 11852 ft 342 kts 312°
2026-05-05 01:43 38.10683 -121.05149 11491 ft 335 kts 311°
2026-05-05 01:43 38.12195 -121.07390 11021 ft 332 kts 311°
2026-05-05 01:44 38.13675 -121.09595 10808 ft 322 kts 311°
2026-05-05 01:44 38.15099 -121.11715 10680 ft 309 kts 311°
2026-05-05 01:44 38.16474 -121.13753 10527 ft 299 kts 311°
2026-05-05 01:44 38.17815 -121.15735 10229 ft 295 kts 311°
2026-05-05 01:45 38.19149 -121.17701 9873 ft 292 kts 311°
2026-05-05 01:45 38.20475 -121.19649 9492 ft 290 kts 311°
2026-05-05 01:45 38.21794 -121.21578 9125 ft 288 kts 312°
2026-05-05 01:45 38.23163 -121.23418 8801 ft 284 kts 315°
2026-05-05 01:46 38.24546 -121.25162 8629 ft 279 kts 316°
2026-05-05 01:46 38.25939 -121.26888 8505 ft 280 kts 316°
2026-05-05 01:46 38.27336 -121.28618 8377 ft 280 kts 316°
2026-05-05 01:46 38.28727 -121.30347 8248 ft 279 kts 315°
2026-05-05 01:47 38.30113 -121.32080 8128 ft 279 kts 315°
2026-05-05 01:47 38.31496 -121.33816 8012 ft 279 kts 315°
2026-05-05 01:47 38.32872 -121.35551 7866 ft 278 kts 315°
2026-05-05 01:47 38.34242 -121.37288 7752 ft 277 kts 315°
2026-05-05 01:48 38.35608 -121.39023 7617 ft 277 kts 315°
2026-05-05 01:48 38.36954 -121.40741 7503 ft 277 kts 314°
2026-05-05 01:48 38.38310 -121.42474 7387 ft 276 kts 314°
2026-05-05 01:48 38.39665 -121.44206 7253 ft 276 kts 314°
2026-05-05 01:49 38.41018 -121.45931 7137 ft 275 kts 314°
2026-05-05 01:49 38.42376 -121.47658 7017 ft 275 kts 314°
2026-05-05 01:49 38.43729 -121.49380 7002 ft 274 kts 314°
2026-05-05 01:49 38.45082 -121.51103 7008 ft 275 kts 314°
2026-05-05 01:50 38.46435 -121.52831 7006 ft 275 kts 314°
2026-05-05 01:50 38.47823 -121.54519 7003 ft 277 kts 321°
2026-05-05 01:50 38.49336 -121.56047 6884 ft 276 kts 321°
2026-05-05 01:50 38.50842 -121.57562 6755 ft 276 kts 321°
2026-05-05 01:51 38.52349 -121.59075 6639 ft 275 kts 321°
2026-05-05 01:51 38.53853 -121.60583 6518 ft 275 kts 320°
2026-05-05 01:51 38.55361 -121.62097 6392 ft 274 kts 321°
2026-05-05 01:51 38.56842 -121.63587 6158 ft 275 kts 320°
2026-05-05 01:52 38.58450 -121.64927 5733 ft 277 kts 333°
2026-05-05 01:52 38.60266 -121.65757 5376 ft 277 kts 342°
2026-05-05 01:52 38.62119 -121.66452 4983 ft 276 kts 341°
2026-05-05 01:52 38.63972 -121.67163 4557 ft 277 kts 342°
2026-05-05 01:53 38.65796 -121.67865 4357 ft 270 kts 341°
2026-05-05 01:53 38.67571 -121.68549 4194 ft 263 kts 342°
2026-05-05 01:53 38.69309 -121.69217 3940 ft 259 kts 342°
2026-05-05 01:53 38.71022 -121.69872 3685 ft 254 kts 344°
2026-05-05 01:54 38.72758 -121.69965 3439 ft 250 kts
2026-05-05 01:54 38.74450 -121.69696 3185 ft 246 kts
2026-05-05 01:54 38.76142 -121.69629 2927 ft 242 kts 359°
2026-05-05 01:54 38.77812 -121.69634 2675 ft 238 kts 358°
2026-05-05 01:55 38.79454 -121.69650 2447 ft 232 kts 358°
2026-05-05 01:55 38.81045 -121.69655 2263 ft 223 kts 358°
2026-05-05 01:55 38.82544 -121.69648 2148 ft 207 kts 358°
2026-05-05 01:55 38.83918 -121.69625 2050 ft 189 kts
2026-05-05 01:56 38.85086 -121.69052 1987 ft 176 kts 43°
2026-05-05 01:56 38.85619 -121.67668 2002 ft 176 kts 88°
2026-05-05 01:56 38.85535 -121.66106 2013 ft 176 kts 101°
2026-05-05 01:56 38.85249 -121.64591 1994 ft 175 kts 121°
2026-05-05 01:57 38.84415 -121.63512 2017 ft 171 kts 148°
2026-05-05 01:57 38.83408 -121.62705 2010 ft 170 kts 152°
2026-05-05 01:57 38.82382 -121.61942 2034 ft 169 kts 153°
2026-05-05 01:57 38.81392 -121.61209 2008 ft 162 kts 153°
2026-05-05 01:58 38.80429 -121.60498 2005 ft 159 kts 153°
2026-05-05 01:58 38.79419 -121.59977 1824 ft 152 kts 178°
2026-05-05 01:58 38.78399 -121.59986 1621 ft 144 kts 183°
2026-05-05 01:58 38.77405 -121.60000 1418 ft 142 kts 184°
2026-05-05 01:59 38.76430 -121.60015 1222 ft 141 kts 183°
2026-05-05 01:59 38.75441 -121.60031 1033 ft 141 kts 184°
2026-05-05 01:59 38.74459 -121.60046 834 ft 141 kts 183°
2026-05-05 01:59 38.73382 -121.60067 702 ft 173 kts 181°
2026-05-05 02:00 38.72233 -121.60101 1070 ft 159 kts 183°
2026-05-05 02:00 38.71056 -121.60133 1427 ft 180 kts 183°
2026-05-05 02:00 38.69803 -121.60381 1911 ft 187 kts 204°
2026-05-05 02:00 38.68786 -121.61429 2015 ft 185 kts 236°
2026-05-05 02:01 38.68436 -121.62971 1870 ft 184 kts 271°
2026-05-05 02:01 38.68882 -121.64481 1902 ft 186 kts 305°
2026-05-05 02:01 38.69745 -121.65709 1986 ft 189 kts 311°
2026-05-05 02:01 38.70677 -121.66898 1989 ft 189 kts 313°
2026-05-05 02:02 38.71599 -121.68064 1986 ft 186 kts 313°
2026-05-05 02:02 38.72526 -121.69231 1979 ft 185 kts 313°
2026-05-05 02:02 38.73442 -121.70390 1989 ft 185 kts 313°
2026-05-05 02:02 38.74545 -121.71218 1988 ft 189 kts 344°
2026-05-05 02:03 38.75848 -121.71485 1995 ft 190 kts 352°
2026-05-05 02:03 38.77162 -121.71648 1993 ft 190 kts 353°
2026-05-05 02:03 38.78477 -121.71795 1994 ft 190 kts 353°
2026-05-05 02:03 38.79793 -121.71939 1992 ft 190 kts 353°
2026-05-05 02:04 38.81086 -121.72080 2001 ft 184 kts 353°
2026-05-05 02:04 38.82354 -121.72216 1994 ft 181 kts 353°
2026-05-05 02:04 38.83606 -121.72348 1992 ft 180 kts 353°
2026-05-05 02:04 38.84854 -121.72470 1994 ft 181 kts 357°
2026-05-05 02:05 38.86033 -121.71982 1987 ft 183 kts 39°
2026-05-05 02:05 38.86667 -121.70612 1993 ft 181 kts 83°
2026-05-05 02:05 38.86532 -121.69041 1989 ft 177 kts 118°
2026-05-05 02:05 38.85852 -121.67742 2002 ft 176 kts 131°
2026-05-05 02:06 38.85079 -121.66544 2002 ft 172 kts 133°
2026-05-05 02:06 38.84319 -121.65383 1992 ft 169 kts 133°
2026-05-05 02:06 38.83557 -121.64226 1991 ft 169 kts 133°
2026-05-05 02:06 38.82790 -121.63097 1988 ft 168 kts 139°
2026-05-05 02:07 38.81856 -121.62229 1993 ft 165 kts 151°
2026-05-05 02:07 38.80878 -121.61481 2003 ft 159 kts 153°
2026-05-05 02:07 38.79958 -121.60792 1987 ft 149 kts 153°
2026-05-05 02:07 38.79067 -121.60141 1964 ft 146 kts 158°
2026-05-05 02:08 38.78095 -121.60046 1651 ft 139 kts 194°
2026-05-05 02:08 38.77130 -121.60086 1395 ft 141 kts 179°
2026-05-05 02:08 38.76075 -121.60054 1144 ft 150 kts 182°
2026-05-05 02:08 38.75048 -121.60003 839 ft 145 kts 182°
2026-05-05 02:09 38.74051 -121.60054 666 ft 147 kts 182°
2026-05-05 02:09 38.73046 -121.60080 506 ft 141 kts 181°
2026-05-05 02:09 38.72078 -121.60088 327 ft 137 kts 178°
2026-05-05 02:09 38.71121 -121.60106 146 ft 138 kts 179°
2026-05-05 02:10 38.70184 -121.60122 29 ft 125 kts 179°
2026-05-05 02:10 38.69465 -121.60130 22 ft 79 kts 181°
2026-05-05 02:10 38.69135 -121.60134 25 ft 22 kts 181°
2026-05-05 02:10 38.69059 -121.60067 27 ft 9 kts 103°
2026-05-05 02:11 38.69057 -121.60020 24 ft 7 kts 90°
2026-05-05 02:11 38.69057 -121.59951 23 ft 9 kts 90°
2026-05-05 02:11 38.69078 -121.59883 24 ft 9 kts 34°
2026-05-05 02:11 38.69143 -121.59872 23 ft 10 kts
2026-05-05 02:12 38.69222 -121.59871 23 ft 12 kts
2026-05-05 02:12 38.69446 -121.59859 23 ft 13 kts 27°
2026-05-05 02:12 38.69464 -121.59745 23 ft 14 kts 91°
2026-05-05 02:13 38.69462 -121.59628 23 ft 12 kts 91°
2026-05-05 02:13 38.69462 -121.59568 23 ft 2 kts 90°
2026-05-05 02:13 38.69462 -121.59552 23 ft 3 kts 90°
2026-05-05 02:13 38.69461 -121.59512 23 ft 6 kts 90°
2026-05-05 02:14 38.69482 -121.59476 25 ft 6 kts 33°
2026-05-05 02:14 38.69506 -121.59458 23 ft 2 kts 28°
2026-05-05 02:14 38.69513 -121.59454 25 ft 0 kts 28°